DO3HUM-5 Weather Reports


Display with metric or nautical units.
time (UTC)temp
F
wind
direction
speed
MPH
gust
MPH
rain 1hr
in
rain 24hr
in
rain mn
in
humidity
%
barometer
mb
20260510211521 59 0.0 2.0 0.00 0.00 0.00 70 1013.7
20260510210613 59 90 0.0 2.0 0.00 0.00 0.00 69 1013.7
20260510205609 58 0.0 0.0 0.00 0.00 0.00 70 1013.9
20260510204603 58 0.0 0.0 0.00 0.00 0.00 72 1014.1
20260510203559 59 0.0 0.0 0.00 0.00 0.00 71 1014.3
20260510202550 59 0.0 0.0 0.00 0.00 0.00 71 1014.5
20260510201547 59 0.0 0.0 0.00 0.00 0.00 71 1014.5
20260510200540 59 0.0 2.0 0.00 0.00 0.00 72 1014.6
20260510195537 59 0.0 0.0 0.00 0.00 0.00 72 1014.7
20260510194527 60 0.0 0.0 0.00 0.00 0.00 72 1014.7
20260510193525 60 0.0 2.0 0.00 0.00 0.00 70 1014.7
20260510192521 61 83 0.0 2.0 0.00 0.00 0.00 69 1014.8
20260510191613 61 0.0 2.0 0.00 0.00 0.00 68 1014.9
20260510190611 61 90 0.0 2.0 0.00 0.00 0.00 69 1014.9
20260510185602 62 0.0 2.0 0.00 0.00 0.00 69 1014.8
20260510184559 63 0.0 2.0 0.00 0.00 0.00 68 1015.0
20260510183552 64 0.0 0.0 0.00 0.00 0.00 67 1015.0
20260510182548 65 0.0 0.0 0.00 0.00 0.00 65 1014.8
20260510181545 65 0.0 0.0 0.00 0.00 0.00 65 1014.8
20260510180537 66 0.0 2.0 0.00 0.00 0.00 65 1014.8
20260510175535 66 0.0 2.0 0.00 0.00 0.00 64 1014.9
20260510174527 67 68 0.0 2.0 0.00 0.00 0.00 60 1014.9
20260510173523 68 70 1.0 4.0 0.00 0.00 0.00 59 1015.0
20260510172516 68 78 1.0 4.0 0.00 0.00 0.00 57 1015.1
20260510171613 69 65 2.0 4.0 0.00 0.00 0.00 56 1015.2
20260510170603 69 100 1.0 4.0 0.00 0.00 0.00 59 1015.4
20260510165601 69 84 1.0 4.0 0.00 0.00 0.00 58 1015.7
20260510164557 70 84 1.0 4.0 0.00 0.00 0.00 55 1015.7
20260510163548 70 59 1.0 4.0 0.00 0.00 0.00 55 1015.8
20260510162545 70 83 0.0 2.0 0.00 0.00 0.00 57 1015.8
20260510161539 69 68 1.0 2.0 0.00 0.00 0.00 57 1015.9
20260510160536 69 83 1.0 4.0 0.00 0.00 0.00 56 1016.2
20260510155526 70 90 1.0 4.0 0.00 0.00 0.00 58 1016.2
20260510154524 70 96 0.0 4.0 0.00 0.00 0.00 57 1016.3
20260510153521 71 11 1.0 4.0 0.00 0.00 0.00 54 1016.5
20260510152613 70 95 1.0 4.0 0.00 0.00 0.00 54 1016.7
20260510151609 70 85 1.0 4.0 0.00 0.00 0.00 55 1016.8
20260510150603 70 81 2.0 4.0 0.00 0.00 0.00 54 1017.0
20260510145600 71 135 0.0 4.0 0.00 0.00 0.00 55 1017.0
20260510144552 71 103 1.0 2.0 0.00 0.00 0.00 55 1017.2
20260510143548 71 94 1.0 4.0 0.00 0.00 0.00 54 1017.3
20260510142546 70 83 1.0 2.0 0.00 0.00 0.00 54 1017.3
20260510141538 71 65 1.0 4.0 0.00 0.00 0.00 55 1017.5
20260510140535 73 104 1.0 6.0 0.00 0.00 0.00 54 1017.7
20260510135525 74 338 0.0 2.0 0.00 0.00 0.00 51 1017.9
20260510134523 73 78 1.0 4.0 0.00 0.00 0.00 51 1018.0
20260510133614 72 90 1.0 4.0 0.00 0.00 0.00 53 1018.0
20260510132611 71 88 2.0 6.0 0.00 0.00 0.00 55 1018.1
20260510131609 72 68 1.0 4.0 0.00 0.00 0.00 53 1018.3
20260510130602 72 33 1.0 2.0 0.00 0.00 0.00 54 1018.3
20260510125557 72 106 1.0 4.0 0.00 0.00 0.00 54 1018.6
20260510124550 72 126 2.0 4.0 0.00 0.00 0.00 56 1018.7
20260510123546 72 34 2.0 4.0 0.00 0.00 0.00 56 1018.8
20260510122539 71 52 2.0 4.0 0.00 0.00 0.00 56 1018.9
20260510121536 72 90 1.0 4.0 0.00 0.00 0.00 54 1019.0
20260510120527 71 71 2.0 6.0 0.00 0.00 0.00 56 1019.1
20260510115526 73 77 1.0 2.0 0.00 0.00 0.00 54 1019.2
20260510114522 70 81 1.0 4.0 0.00 0.00 0.00 58 1019.3
20260510113609 69 95 2.0 6.0 0.00 0.00 0.00 59 1019.4
20260510112601 68 83 2.0 4.0 0.00 0.00 0.00 58 1019.4
20260510111557 69 88 2.0 4.0 0.00 0.00 0.00 60 1019.6
20260510110551 70 123 1.0 2.0 0.00 0.00 0.00 58 1019.7
20260510105546 69 78 1.0 4.0 0.00 0.00 0.00 56 1019.8
20260510104538 68 71 1.0 2.0 0.00 0.00 0.00 58 1019.8
20260510103535 65 76 2.0 4.0 0.00 0.00 0.00 60 1020.0
20260510102527 66 100 1.0 4.0 0.00 0.00 0.00 61 1020.2
20260510101525 65 97 1.0 2.0 0.00 0.00 0.00 62 1020.3
20260510100521 65 74 1.0 4.0 0.00 0.00 0.00 62 1020.4
20260510095614 65 84 1.0 4.0 0.00 0.00 0.00 62 1020.5
20260510094611 66 113 1.0 2.0 0.00 0.00 0.00 61 1020.6
20260510093602 65 94 1.0 4.0 0.00 0.00 0.00 62 1020.7
20260510092600 66 54 1.0 4.0 0.00 0.00 0.00 61 1020.6
20260510091552 65 58 0.0 4.0 0.00 0.00 0.00 63 1020.7
20260510090550 65 16 1.0 4.0 0.00 0.00 0.00 60 1020.8
20260510085545 65 81 1.0 4.0 0.00 0.00 0.00 61 1020.9
20260510084537 64 334 1.0 4.0 0.00 0.00 0.00 61 1020.8
20260510083535 65 48 0.0 2.0 0.00 0.00 0.00 63 1021.0
20260510082525 64 99 0.0 2.0 0.00 0.00 0.00 64 1021.0
20260510081525 64 63 0.0 2.0 0.00 0.00 0.00 63 1021.0
20260510080615 63 359 0.0 2.0 0.00 0.00 0.00 64 1021.2
20260510075612 62 82 0.0 2.0 0.00 0.00 0.00 65 1021.3
20260510074611 62 113 0.0 2.0 0.00 0.00 0.00 64 1021.3
20260510073601 61 113 0.0 2.0 0.00 0.00 0.00 65 1021.4
20260510072558 61 90 0.0 2.0 0.00 0.00 0.00 66 1021.5
20260510071551 61 65 0.0 2.0 0.00 0.00 0.00 66 1021.6
20260510070547 60 90 1.0 2.0 0.00 0.00 0.00 68 1021.6
20260510065539 59 84 0.0 2.0 0.00 0.00 0.00 68 1021.7
20260510064536 58 111 0.0 2.0 0.00 0.00 0.00 71 1021.7
20260510063533 56 82 0.0 2.0 0.00 0.00 0.00 72 1021.8
20260510062526 56 159 0.0 4.0 0.00 0.00 0.00 72 1021.9
20260510061523 55 100 1.0 4.0 0.00 0.00 0.00 73 1022.0
20260510060615 57 113 0.0 4.0 0.00 0.00 0.00 70 1022.1
20260510055613 56 0.0 0.0 0.00 0.00 0.00 71 1022.1
20260510054602 54 0.0 0.0 0.00 0.00 0.00 74 1022.1
20260510053600 53 0.0 0.0 0.00 0.00 0.00 76 1022.0
20260510052557 52 0.0 0.0 0.00 0.00 0.00 78 1022.1
20260510051548 51 0.0 0.0 0.00 0.00 0.00 79 1022.1
20260510050545 49 0.0 0.0 0.00 0.00 0.00 82 1022.1
20260510045537 47 0.0 0.0 0.00 0.00 0.00 91 1022.1
20260510044536 44 0.0 0.0 0.00 0.00 0.00 93 1022.1
20260510043526 43 0.0 0.0 0.00 0.00 0.00 93 1022.0
20260510042525 42 0.0 0.0 0.00 0.00 0.00 93 1022.3
20260510041521 42 0.0 0.0 0.00 0.00 0.00 93 1022.2
20260510040613 42 0.0 0.0 0.00 0.00 0.00 93 1022.3
20260510035610 42 0.0 0.0 0.00 0.00 0.00 92 1022.2
20260510034601 42 0.0 0.0 0.00 0.00 0.00 92 1022.4
20260510033600 42 0.0 0.0 0.00 0.00 0.00 92 1022.3
20260510032550 42 0.0 0.0 0.00 0.00 0.00 92 1022.4
20260510031548 43 0.0 0.0 0.00 0.00 0.00 92 1022.4
20260510030545 43 0.0 0.0 0.00 0.00 0.00 92 1022.4
20260510025536 43 0.0 0.0 0.00 0.00 0.00 92 1022.5
20260510024535 43 0.0 0.0 0.00 0.00 0.00 92 1022.5
20260510023525 43 0.0 0.0 0.00 0.00 0.00 92 1022.5
20260510022522 43 0.0 0.0 0.00 0.00 0.00 92 1022.8
20260510021616 43 0.0 0.0 0.00 0.00 0.00 92 1023.0
20260510020612 44 0.0 0.0 0.00 0.00 0.00 91 1023.1
20260510015608 44 0.0 0.0 0.00 0.00 0.00 91 1023.1
20260510014603 44 0.0 0.0 0.00 0.00 0.00 91 1023.3
20260510013557 44 0.0 0.0 0.00 0.00 0.00 91 1023.2
20260510012548 44 0.0 0.0 0.00 0.00 0.00 90 1023.1
20260510011538 44 0.0 0.0 0.00 0.00 0.00 90 1023.2
20260510010537 45 0.0 0.0 0.00 0.00 0.00 90 1023.3
20260510005535 46 0.0 0.0 0.00 0.00 0.00 90 1023.5
20260510004524 45 0.0 0.0 0.00 0.00 0.00 89 1023.7
20260510003522 46 0.0 0.0 0.00 0.00 0.00 89 1023.7
20260510002613 47 0.0 0.0 0.00 0.00 0.00 88 1024.0
20260510001611 46 0.0 0.0 0.00 0.00 0.00 87 1023.9
20260510000604 48 0.0 0.0 0.00 0.00 0.00 85 1024.2
20260509235557 48 0.0 0.0 0.00 0.00 0.00 85 1024.1
20260509234549 49 0.0 0.0 0.00 0.00 0.00 83 1024.2
20260509233546 48 0.0 0.0 0.00 0.00 0.00 84 1024.2
20260509232540 49 0.0 0.0 0.00 0.00 0.00 83 1024.4
20260509231536 50 0.0 0.0 0.00 0.00 0.00 83 1024.5
20260509230527 50 0.0 0.0 0.00 0.00 0.00 81 1024.7
20260509225524 51 0.0 0.0 0.00 0.00 0.00 81 1024.8
20260509224517 52 0.0 0.0 0.00 0.00 0.00 79 1024.9
20260509223611 52 0.0 0.0 0.00 0.00 0.00 78 1025.1
20260509222602 52 0.0 0.0 0.00 0.00 0.00 77 1025.2
20260509221601 52 0.0 0.0 0.00 0.00 0.00 77 1025.3
20260509220551 52 0.0 0.0 0.00 0.00 0.00 78 1025.3
20260509215547 52 0.0 0.0 0.00 0.00 0.00 79 1025.3
20260509214538 51 0.0 0.0 0.00 0.00 0.00 80 1025.2
20260509213535 51 0.0 0.0 0.00 0.00 0.00 80 1025.3